Wind_Speed
9 8 8 8 8 8 8 8 7 7 7 7 7 7 7 8 8 7 7 7 7 7 8 8 8 8 8 9 8 8 8 8 8 6 5 6 6 6 7 7 7 7 6 6 6 6 6 6 6 5 5 4 4 4 5 5 6 8 9 11 11 9 8 7 6 9 14 17 20 22 23 24 21 19 18 18 17 16 18 17 16 16 16 16 15 15 15 15
10 10 10 10 9 9 9 9 9 9 9 9 9 9 9 9 9 9 9 9 9 9 10 10 10 10 10 11 10 11 11 11 11 7 6 10 9 9 9 9 9 9 8 8 8 8 8 8 7 7 6 6 5 6 6 6 7 9 11 13 10 9 10 9 10 13 17 19 21 22 24 25 23 20 20 20 18 18 20 19 18 18 17 17 17 17 16 15
12 12 11 11 11 11 11 11 11 11 11 11 11 10 10 10 10 10 11 11 11 10 11 11 11 12 12 12 12 13 12 12 11 8 9 13 11 11 11 10 10 10 10 10 10 10 10 11 10 9 9 7 7 7 7 8 9 9 12 14 10 10 13 12 13 16 18 20 21 22 24 25 25 23 22 21 21 21 21 19 18 19 18 18 19 20 19 17
13 13 13 13 12 12 12 12 12 12 12 12 12 12 12 12 12 12 12 12 12 12 12 12 13 13 13 13 13 14 13 13 12 10 12 14 13 12 12 12 12 12 12 12 12 12 12 13 13 13 12 9 9 10 8 8 10 12 14 13 11 13 16 15 15 18 18 19 21 22 24 25 25 26 25 23 24 22 18 17 19 19 18 20 22 21 20 18
15 15 15 15 14 14 14 14 14 14 14 14 14 14 13 13 13 13 13 13 14 14 14 14 14 14 15 14 15 14 14 12 10 10 11 13 12 12 13 13 14 14 14 14 14 14 14 14 15 14 14 12 12 13 10 9 12 16 14 13 13 15 18 17 17 19 18 19 21 22 24 25 25 27 26 25 26 20 16 18 20 21 21 22 23 22 20 18
17 17 17 17 16 16 16 16 16 16 16 15 15 15 15 15 15 15 15 15 15 15 15 16 16 16 16 16 16 16 15 12 9 9 10 11 12 12 14 15 15 15 16 16 16 16 16 16 16 16 17 16 14 14 14 14 16 19 17 15 16 18 21 19 19 21 21 22 23 24 26 25 26 27 27 28 26 19 17 19 21 23 23 24 24 22 20 18
18 18 18 18 18 18 18 18 18 18 18 17 17 17 17 17 17 17 16 16 16 16 17 17 17 17 17 17 17 17 17 14 12 14 14 14 15 15 16 17 17 17 17 17 17 17 17 18 18 17 19 19 17 15 16 17 19 21 20 18 18 19 22 21 22 23 23 24 24 25 27 26 26 27 29 29 24 20 20 21 21 22 22 24 25 23 22 20
19 19 19 19 19 19 19 20 20 20 20 20 20 19 19 19 19 19 19 18 18 18 18 18 19 19 19 19 19 19 18 16 15 16 16 17 17 17 17 18 18 18 17 18 18 18 19 19 19 20 22 21 19 18 18 19 21 23 22 20 20 21 22 22 24 24 24 25 26 27 27 26 26 28 31 28 22 20 20 20 19 20 21 22 24 25 24 23
20 20 20 20 20 20 20 21 21 21 21 21 22 22 22 21 21 21 21 21 20 20 20 20 21 20 21 21 21 21 18 16 16 16 17 17 17 18 18 18 19 19 19 18 18 19 20 19 20 22 23 22 22 21 19 21 23 24 23 23 24 23 23 24 25 25 25 27 27 28 26 24 24 28 30 21 17 18 19 19 19 21 24 23 24 25 25 25
22 21 22 22 21 21 22 22 22 22 22 22 23 23 23 24 24 23 23 23 23 23 22 23 22 23 23 22 24 23 17 16 17 17 18 18 18 18 18 19 20 20 19 19 19 20 20 20 21 22 23 24 24 23 22 23 25 25 25 26 26 24 24 25 26 25 25 27 27 27 24 22 23 28 27 17 16 18 19 21 21 23 24 22 23 23 24 25
23 23 23 23 23 23 23 23 23 23 23 23 24 24 25 25 25 25 25 25 25 25 25 25 25 25 25 25 26 24 19 19 20 19 19 19 19 19 19 20 21 21 21 21 21 21 21 22 23 23 23 24 25 24 24 26 27 27 27 28 26 26 27 27 27 24 23 24 24 24 24 23 24 27 25 19 18 20 21 22 22 23 23 21 23 22 24 26
25 24 24 24 24 24 24 24 24 24 24 24 25 25 25 26 26 26 26 26 27 26 27 27 28 28 28 28 27 25 23 24 23 22 22 21 20 20 21 22 22 23 23 23 23 23 23 23 24 24 24 25 26 26 26 26 27 27 28 30 29 30 30 27 26 22 21 24 24 23 25 26 26 26 24 20 20 22 24 24 22 23 23 22 23 24 25 26
26 26 26 26 26 26 26 26 25 25 25 25 26 26 26 27 27 27 27 27 28 28 28 28 29 30 31 31 27 26 27 26 25 24 23 22 22 22 22 23 24 24 25 25 25 25 25 25 26 26 26 26 27 27 29 28 28 30 30 32 33 34 33 26 23 23 22 25 25 23 25 30 30 27 26 23 22 23 25 26 24 24 25 26 26 26 26 25
29 28 28 28 28 27 28 27 27 27 27 27 27 27 27 27 28 28 28 28 29 30 30 30 31 31 33 32 28 28 28 27 26 25 24 23 24 24 24 25 26 26 27 26 26 26 27 28 28 28 27 27 28 29 31 31 31 32 32 34 34 35 35 28 24 26 26 26 27 22 25 33 34 28 29 29 28 29 28 27 27 27 28 29 30 29 27 26
31 31 30 30 30 29 30 29 29 28 28 28 28 29 28 29 29 28 28 29 29 30 30 31 32 32 35 33 29 30 29 28 27 25 25 25 25 26 27 28 28 28 29 28 28 28 29 30 30 29 28 27 28 31 33 32 32 32 32 35 36 36 36 32 29 30 28 25 26 24 25 33 38 32 32 33 34 35 33 30 29 29 30 31 33 32 30 28
31 31 31 32 32 32 32 31 31 30 30 30 30 30 30 30 31 30 31 30 31 31 31 32 33 33 36 33 29 28 27 26 25 24 24 24 25 26 27 29 30 31 31 30 30 30 31 31 30 29 28 28 29 33 33 31 33 35 35 36 36 36 34 34 36 36 33 29 27 27 27 34 40 37 35 35 36 37 35 34 32 31 32 32 34 35 33 31
30 30 31 31 31 32 32 33 32 32 31 31 31 31 31 32 32 32 33 33 33 33 32 34 34 36 37 33 30 28 26 26 25 24 23 24 25 26 27 29 31 32 32 32 32 33 33 32 31 30 29 29 32 34 29 28 37 39 36 35 35 35 33 36 41 39 36 33 30 30 32 39 45 41 38 37 36 37 37 35 35 35 35 35 36 36 35 35
29 29 29 30 30 31 31 32 33 33 33 32 33 32 32 33 33 33 34 35 35 35 36 37 36 37 36 31 28 27 24 23 23 23 22 23 24 25 26 29 31 32 33 33 34 35 34 33 32 30 29 32 35 36 32 33 40 39 36 36 36 36 35 38 43 40 37 36 33 33 38 46 48 43 40 38 35 37 38 37 38 39 39 38 37 37 36 35
29 29 28 29 29 29 30 30 31 32 32 32 33 34 34 34 35 35 35 35 36 36 37 38 37 37 35 31 29 29 26 25 26 25 24 25 26 26 27 29 32 32 31 33 34 34 32 32 32 30 33 38 39 40 40 40 40 38 37 37 37 37 38 43 45 42 38 37 37 39 45 50 50 47 45 40 35 36 39 40 41 42 41 40 39 38 35 32
30 29 29 29 29 29 29 28 29 29 30 31 32 33 34 35 36 36 36 37 37 36 37 39 39 38 37 36 35 33 32 30 30 29 28 29 30 31 32 33 36 35 34 36 35 34 33 34 35 35 37 39 38 39 41 41 38 38 38 38 40 39 43 49 47 43 39 38 41 45 49 52 51 51 48 42 38 37 40 42 44 44 42 41 40 36 32 28
31 30 30 30 30 29 28 28 28 28 28 28 29 31 32 34 36 37 38 39 37 36 38 38 40 40 39 38 37 35 34 34 32 31 31 31 31 33 35 37 38 38 37 36 36 37 38 38 39 40 40 38 38 39 40 41 40 39 39 41 43 41 46 52 46 45 43 41 47 49 50 51 51 52 49 44 42 41 42 43 44 44 42 40 37 32 28 24
31 31 31 31 31 30 29 29 28 27 27 27 27 28 30 31 34 36 39 42 40 38 39 39 40 42 39 37 37 35 35 36 35 34 32 31 33 35 37 39 40 40 38 36 39 41 41 43 44 41 39 37 38 39 40 41 40 38 39 42 44 43 47 51 47 46 45 43 47 48 47 50 51 52 50 46 46 45 44 43 42 42 40 37 34 30 27 24
32 32 32 32 32 31 30 30 29 28 27 27 26 27 28 29 31 33 37 42 44 40 39 40 40 41 39 37 38 35 37 39 37 36 32 32 36 36 38 41 41 42 40 39 43 45 44 44 43 39 37 37 39 39 38 38 39 41 42 43 45 45 44 49 49 47 45 44 44 47 49 52 52 52 52 48 46 45 42 40 39 39 38 36 33 30 27 26
33 33 32 32 33 32 31 31 30 29 28 27 27 26 27 28 29 31 35 41 47 44 41 40 41 41 39 37 37 36 39 41 40 39 34 35 38 37 40 42 42 43 42 42 45 48 49 45 43 41 40 40 41 41 38 38 43 47 46 44 46 47 44 48 49 46 46 45 44 46 47 51 52 49 50 46 42 42 40 40 41 40 38 35 31 28 27 25
32 32 33 33 33 33 32 31 31 30 29 28 27 26 26 27 27 30 33 38 46 47 41 40 40 39 38 37 37 38 40 43 42 40 37 38 38 39 42 41 42 45 43 42 46 50 50 45 42 42 41 40 41 42 38 37 45 50 48 44 45 46 44 45 43 40 41 39 38 36 28 33 40 39 45 47 43 45 44 43 44 40 37 33 30 27 24 22
31 31 32 32 32 32 32 31 31 30 29 28 27 27 26 26 26 28 32 37 45 45 38 34 31 30 32 33 33 33 37 42 41 39 41 41 39 40 43 44 44 46 44 43 44 46 47 43 41 40 40 39 38 39 37 36 43 49 46 42 42 42 42 42 39 35 33 29 28 21 13 23 37 39 45 49 47 47 45 43 42 38 35 34 30 25 21 21
30 30 31 31 30 31 31 31 31 30 29 28 28 28 26 26 26 27 29 28 30 30 23 18 17 18 21 20 20 22 28 32 31 30 33 35 37 40 43 46 46 45 45 41 38 41 43 41 39 37 36 35 35 35 36 35 39 46 45 41 40 40 40 38 35 32 32 34 30 19 13 22 41 49 47 47 44 43 44 43 42 39 36 33 28 23 22 22
31 30 30 30 30 29 29 29 30 30 29 29 28 26 25 25 26 26 21 12 11 14 12 11 12 12 12 11 15 19 23 26 25 23 23 23 28 33 37 41 42 44 45 41 41 44 43 41 40 36 32 32 36 36 37 35 38 44 43 41 40 39 38 35 33 31 30 33 26 18 15 16 38 55 45 36 35 35 42 43 39 35 31 28 26 24 22 20
33 32 31 31 30 28 28 28 28 28 28 27 26 24 24 23 24 23 15 8 8 13 16 18 18 14 13 13 16 20 23 25 26 25 22 20 22 26 30 33 34 37 40 41 46 45 40 41 42 38 35 36 38 37 37 37 38 40 40 40 37 34 33 30 31 30 26 25 16 11 12 10 34 55 36 23 27 28 34 34 29 29 28 27 27 25 21 19
37 36 34 33 31 29 30 28 25 27 28 26 25 24 22 21 21 17 10 12 14 16 19 21 19 18 18 18 18 20 23 24 26 27 24 23 25 27 31 32 31 32 34 37 42 42 39 41 42 40 39 39 38 36 38 37 37 39 39 39 36 33 33 28 29 27 18 18 17 18 21 16 21 29 12 10 19 18 20 23 22 25 27 27 25 25 25 24
39 39 37 35 33 32 33 28 25 26 26 26 25 24 22 21 19 11 9 17 21 20 24 23 21 21 21 22 22 23 25 26 27 27 27 28 30 32 34 32 31 31 33 37 39 39 39 40 42 41 39 38 37 38 40 39 39 39 36 36 32 26 23 18 17 14 7 10 15 18 21 21 24 14 7 6 8 5 13 20 24 23 22 26 29 32 33 28
39 39 40 38 35 35 33 29 28 27 25 26 24 22 22 17 18 23 23 22 15 10 12 11 12 15 15 19 23 24 25 28 28 28 29 31 33 36 35 34 32 27 28 34 35 36 41 43 40 37 36 36 35 37 39 39 40 39 37 33 21 10 8 6 3 4 8 14 15 14 13 22 38 37 26 23 19 19 24 26 29 25 18 25 34 36 32 27
37 38 39 39 38 37 35 33 33 31 29 28 23 24 20 10 18 34 35 27 17 10 11 12 15 17 17 21 24 23 24 27 27 27 29 32 36 38 36 36 35 29 28 33 33 32 35 41 40 36 36 37 37 38 38 37 37 37 37 31 18 6 1 4 4 3 9 17 19 19 16 21 35 38 33 33 30 28 28 27 29 26 19 24 31 30 28 29
37 37 38 38 39 39 37 36 35 33 32 31 28 25 19 16 28 35 28 26 27 27 27 30 32 31 28 29 28 26 27 28 28 27 29 34 38 39 39 39 37 36 36 35 34 30 24 32 40 36 33 36 38 35 33 32 32 35 35 29 25 20 8 4 6 5 6 13 17 13 13 16 25 26 26 28 27 26 29 29 27 27 25 24 24 25 28 30
40 40 40 41 41 39 37 36 35 33 33 33 31 26 24 30 40 39 31 31 33 34 34 35 35 35 35 36 34 32 31 30 30 30 32 36 39 40 41 40 37 37 36 32 33 31 26 35 45 40 35 38 36 32 29 27 29 35 31 25 29 31 25 18 19 20 11 10 15 14 16 28 39 44 46 44 41 37 35 34 28 27 26 22 23 28 28 25
44 44 44 46 45 41 38 38 37 35 34 33 30 31 35 40 42 39 36 33 31 31 31 32 34 36 36 36 35 35 33 32 33 34 35 38 40 42 43 43 39 38 38 36 35 31 26 35 44 39 34 32 29 27 27 25 27 29 26 27 30 31 31 27 21 25 16 7 19 23 24 35 42 46 43 31 27 24 21 25 24 24 24 21 24 27 22 19
46 46 47 47 46 42 39 38 38 36 35 34 34 38 42 46 45 43 40 36 34 31 28 29 34 35 31 28 29 29 27 29 33 35 36 37 38 42 44 43 42 41 41 40 41 38 31 35 44 42 36 35 33 29 26 29 32 30 26 29 28 21 26 24 10 8 8 6 17 28 31 33 30 28 24 16 19 22 20 22 23 23 24 24 22 19 17 18
45 46 48 48 46 43 40 39 38 38 36 36 40 44 47 49 49 47 43 41 40 35 30 31 32 32 27 25 27 24 19 23 29 32 36 36 36 40 40 39 40 40 38 36 41 42 37 36 42 47 45 43 41 35 29 32 34 34 34 32 26 17 18 21 12 5 7 6 9 22 31 34 34 36 36 31 28 26 20 17 17 17 18 22 21 17 17 19
44 45 48 49 45 41 39 38 38 38 36 37 41 45 49 51 52 49 46 43 41 39 39 38 37 35 32 31 33 31 27 28 28 29 31 30 32 37 37 35 36 36 34 34 38 41 40 34 32 41 46 40 37 38 37 35 33 34 36 35 34 29 21 20 20 13 10 8 8 14 17 27 43 47 39 33 25 20 18 16 17 16 16 21 22 20 22 21
43 43 47 49 45 40 38 36 37 38 38 40 44 46 47 47 47 47 47 44 41 40 41 41 40 39 39 39 40 40 40 38 33 30 29 29 31 33 32 30 30 30 29 31 34 37 42 39 31 36 42 37 38 44 44 39 34 34 38 38 38 37 27 19 20 23 19 9 6 8 7 24 52 50 36 34 27 19 19 18 19 23 25 25 23 22 26 24
40 41 46 48 41 36 36 34 36 40 43 45 47 47 46 44 44 45 45 45 44 42 41 41 40 39 39 40 42 42 40 38 34 29 28 30 30 26 23 22 22 22 23 25 28 31 36 38 34 34 37 39 45 47 43 39 33 30 35 37 37 40 32 16 12 23 29 19 11 11 7 22 53 57 48 47 39 31 34 32 31 35 36 34 31 29 30 30
39 41 45 44 38 34 34 33 35 38 41 45 47 46 45 43 44 44 42 42 42 42 41 40 40 41 40 40 42 42 40 40 41 38 37 40 38 33 27 24 22 20 21 24 27 30 34 34 31 33 35 37 39 38 36 34 29 25 27 30 32 36 35 25 14 19 28 24 20 20 12 20 50 63 59 58 54 50 52 50 45 45 42 39 37 33 32 34
38 39 41 41 38 36 35 35 36 39 42 44 45 44 43 42 43 43 41 40 40 39 39 39 39 39 40 39 39 39 40 43 45 45 45 46 46 44 40 37 35 30 26 26 24 23 24 22 20 25 30 33 34 35 35 32 29 25 25 27 29 30 35 35 30 29 26 22 21 17 9 20 45 58 57 60 61 59 59 58 54 47 40 37 35 33 35 40
36 37 38 39 38 36 36 38 38 41 43 44 45 45 44 44 45 47 47 47 46 44 44 44 44 43 43 43 42 43 43 41 41 44 43 44 45 43 41 41 40 38 33 30 26 23 21 19 16 15 16 21 25 27 32 38 40 38 37 36 37 41 44 42 40 36 26 26 31 19 9 27 47 52 54 58 60 59 58 59 57 49 40 37 35 37 41 45
35 36 36 37 37 38 40 41 41 42 43 43 45 46 46 46 48 49 50 50 48 47 47 47 47 46 46 46 46 48 49 45 44 45 47 50 52 50 48 46 44 44 43 41 40 38 38 39 35 23 11 10 13 17 28 39 41 41 44 45 46 48 48 46 43 33 21 29 41 30 23 42 55 55 58 62 61 60 59 57 57 53 46 41 40 42 45 49
35 36 36 35 36 38 42 42 41 42 42 41 44 45 46 48 50 50 50 51 51 49 47 46 44 44 44 46 46 48 50 50 49 50 52 55 57 58 58 56 54 54 55 54 51 47 47 50 50 46 37 33 36 40 45 47 42 40 43 46 48 47 48 49 44 36 33 35 40 42 45 54 58 57 60 62 60 61 63 61 59 55 50 49 49 51 54 58
34 35 35 31 28 29 35 38 39 40 39 38 40 43 45 47 47 46 47 48 48 45 43 43 43 43 45 47 47 47 48 48 48 50 52 54 55 56 55 55 55 55 54 54 52 49 49 49 51 55 55 54 56 57 57 55 52 50 50 50 51 49 48 49 46 47 48 37 32 46 56 55 57 59 60 60 60 61 61 59 58 57 56 55 56 59 61 64
33 34 33 29 26 26 28 31 33 36 36 36 38 39 40 42 42 42 43 44 44 43 42 43 42 44 46 47 46 46 45 45 47 49 51 52 53 53 53 53 53 51 49 51 52 51 51 51 51 55 57 57 58 58 57 59 58 58 57 54 55 55 52 51 51 54 54 44 41 51 55 53 56 58 58 59 60 59 59 57 56 58 61 62 62 64 64 63
31 33 32 31 33 35 34 34 35 37 39 39 38 37 37 37 38 38 37 36 37 37 39 43 44 45 47 46 46 47 45 45 47 48 48 47 46 47 51 53 52 50 48 48 51 50 50 51 49 51 55 57 57 57 58 59 60 60 60 58 59 60 58 56 56 56 55 55 57 57 54 56 59 59 61 61 58 58 58 57 58 60 62 63 64 66 67 66
30 32 33 33 36 37 38 39 40 41 41 41 42 43 43 43 43 43 41 39 38 35 32 33 36 38 38 38 40 43 45 46 47 45 42 40 37 35 37 37 39 43 44 46 48 47 47 49 46 46 50 51 53 56 56 55 57 60 61 60 60 60 61 62 61 60 59 60 63 61 60 64 64 62 64 63 60 63 64 61 60 58 57 58 61 66 68 65
31 32 32 34 37 36 36 38 39 41 43 43 45 45 42 41 42 42 44 47 46 43 38 35 36 37 37 36 35 36 38 39 41 42 41 40 38 35 32 27 25 28 33 38 41 42 45 47 44 41 39 40 44 48 50 54 58 60 60 61 60 60 62 64 64 63 61 62 63 60 59 64 63 59 59 60 60 64 66 64 61 56 54 55 57 57 53 49
33 33 32 33 35 37 36 37 37 40 43 43 44 44 40 39 40 41 42 45 46 45 43 42 44 45 46 47 46 44 44 43 42 42 41 40 40 40 40 37 34 33 34 35 37 41 43 44 44 41 36 36 40 43 49 49 41 41 52 59 60 62 64 64 63 61 59 61 62 60 61 64 63 60 60 61 61 61 61 60 59 56 53 50 47 46 46 47
Wind_Direction
270 272 272 274 275 277 278 280 281 280 281 281 282 284 284 285 287 285 282 278 277 275 275 274 272 270 268 266 265 265 265 265 266 270 276 275 275 273 277 283 284 286 290 293 295 296 299 301 304 305 306 306 309 303 295 299 293 292 290 284 291 309 309 288 280 287 280 281 286 290 298 300 299 300 300 299 298 297 293 293 297 297 298 302 303 299 296 293
267 268 268 269 270 272 273 275 277 278 279 279 280 281 281 282 282 282 281 278 275 274 273 273 273 273 271 270 267 265 263 261 263 267 261 261 261 258 264 272 276 278 280 282 286 286 285 283 282 283 282 283 290 285 284 290 288 291 286 283 298 312 302 287 274 271 272 276 280 288 296 297 297 300 298 296 298 295 291 297 301 296 298 301 300 297 297 296
269 268 268 268 269 270 271 273 274 275 276 277 278 278 279 279 279 279 279 278 276 274 273 272 271 272 272 272 271 269 268 265 268 268 254 256 258 255 256 264 272 274 273 274 278 281 282 281 274 267 267 273 279 274 275 280 282 282 275 280 304 309 296 289 281 276 277 280 285 291 295 295 298 299 294 294 296 290 291 301 300 295 297 296 294 295 296 296
272 271 270 268 268 269 270 272 272 273 274 274 275 275 275 275 276 277 276 276 275 276 275 273 271 270 270 271 272 271 270 270 271 264 254 257 260 258 257 262 270 272 272 272 273 275 279 281 279 274 273 278 282 277 276 279 282 276 269 281 302 301 295 293 288 285 286 290 292 295 295 295 298 296 293 295 293 290 298 302 294 291 295 292 289 290 290 292
273 272 272 271 271 270 270 270 271 272 272 273 274 275 275 274 274 274 274 273 273 274 274 275 274 272 271 270 271 271 271 274 274 265 255 255 255 252 250 254 265 270 269 269 271 272 275 277 278 279 278 279 280 280 281 280 281 279 276 285 297 300 296 293 292 292 295 296 295 296 296 296 295 292 294 293 288 293 304 297 290 292 292 287 286 287 289 292
272 272 273 273 273 273 272 272 272 272 272 273 274 275 276 276 275 274 273 273 271 271 272 273 273 273 273 271 271 270 270 273 274 269 259 252 252 249 250 256 264 267 266 267 269 271 274 275 276 278 277 274 274 276 278 279 282 283 285 291 298 302 296 295 297 296 299 297 296 297 294 293 293 294 295 289 284 292 300 294 292 292 289 287 287 289 292 293
272 273 273 273 274 274 274 275 275 275 275 275 275 275 276 276 276 276 275 274 273 271 270 271 271 272 272 271 271 268 266 269 272 271 266 261 260 259 261 264 267 268 267 266 266 271 273 274 277 279 275 273 272 273 276 279 281 283 288 295 299 297 295 298 298 297 297 294 294 293 290 291 294 295 291 285 285 292 295 294 291 288 286 286 287 290 293 293
271 271 272 272 273 274 274 275 275 276 277 277 277 277 276 276 276 276 276 275 275 274 272 271 270 270 270 270 269 266 265 271 272 270 269 268 267 265 265 266 268 269 267 266 267 269 271 274 277 276 275 277 277 276 278 281 280 281 288 294 293 292 294 296 295 295 295 294 294 291 290 292 295 293 286 286 293 296 295 291 285 283 281 280 283 290 294 295
267 268 270 271 271 273 273 274 275 275 277 278 278 279 278 278 277 278 277 277 277 275 274 272 271 270 269 270 268 265 267 273 270 268 269 268 268 268 268 267 267 267 266 267 267 267 271 275 275 274 277 278 276 274 275 276 277 280 286 289 288 289 293 294 294 295 296 297 296 294 293 293 292 287 284 297 311 304 297 287 281 279 277 278 282 287 291 293
264 266 267 269 270 271 272 273 273 274 275 276 277 278 279 278 278 278 278 278 278 277 277 275 273 272 270 270 268 265 269 273 269 267 266 266 267 269 269 270 269 268 267 267 268 270 273 274 274 275 276 276 273 272 272 272 275 279 282 283 286 289 290 290 290 296 299 297 295 295 296 294 289 281 284 314 322 299 287 281 280 279 279 282 283 285 289 292
263 264 265 267 268 269 270 270 271 272 273 274 275 277 277 277 278 278 278 279 278 278 278 277 276 274 272 269 266 267 271 270 268 268 268 268 268 268 269 271 270 270 268 268 270 272 273 273 273 274 274 274 274 273 272 272 275 278 279 281 285 287 287 286 290 299 299 292 293 295 294 291 285 280 290 317 313 291 282 279 281 282 283 283 283 286 290 293
264 264 265 265 266 267 268 268 269 270 270 271 272 274 275 275 276 276 277 278 278 277 277 277 277 276 275 269 266 270 271 267 267 268 268 270 270 269 270 271 271 271 269 268 270 272 273 272 272 272 271 271 273 274 274 275 277 278 280 283 286 286 284 288 295 299 293 288 294 295 289 288 286 289 301 311 302 293 289 288 287 285 286 284 284 287 289 292
265 265 265 265 266 266 266 267 268 269 270 270 271 272 273 274 275 274 275 275 276 276 276 276 276 276 275 270 268 270 269 268 268 268 270 271 271 270 270 270 271 271 271 270 271 271 271 271 270 270 269 270 272 273 273 273 274 276 280 282 285 285 285 295 301 295 289 288 297 294 283 289 294 298 306 306 298 295 293 293 293 292 289 287 287 288 289 291
267 267 267 267 267 266 267 267 267 267 268 269 270 271 272 273 274 274 274 274 274 274 275 276 275 276 274 271 269 269 269 270 270 270 271 270 269 270 269 270 270 271 271 271 271 270 270 269 267 267 269 271 273 272 271 270 272 277 279 278 280 281 286 299 301 293 291 291 299 292 274 290 300 300 305 305 301 298 294 293 293 292 291 291 291 291 291 291
268 268 268 268 268 268 268 268 268 268 268 268 269 269 270 271 272 274 274 274 273 273 274 275 275 276 275 271 268 270 271 271 273 274 273 270 268 267 268 268 269 270 270 270 270 270 270 269 267 268 269 271 273 270 268 270 273 276 275 276 278 279 288 301 296 291 295 294 297 286 269 289 301 300 305 305 302 300 297 294 291 289 291 292 293 292 292 293
270 270 270 270 269 269 269 269 269 269 269 269 269 269 270 269 270 271 272 272 272 272 273 274 274 275 276 273 269 270 272 273 275 273 271 270 268 267 267 268 268 268 269 270 270 269 269 269 268 268 267 269 270 268 269 272 273 273 271 275 280 283 292 299 294 292 297 294 289 282 274 287 296 300 304 303 302 300 296 293 291 290 291 292 292 292 291 293
272 273 273 272 272 272 272 271 271 271 271 271 271 271 271 271 271 270 270 271 271 272 272 272 272 273 273 274 274 273 273 274 274 271 269 268 267 267 267 267 268 268 268 268 268 269 269 269 269 267 267 269 267 265 264 265 269 272 274 278 285 290 293 294 292 293 296 293 287 283 279 284 293 299 300 300 300 296 292 291 291 290 290 291 292 292 292 293
274 275 275 276 276 275 275 274 274 273 272 272 272 272 272 272 272 271 271 270 270 270 270 270 271 272 273 275 275 274 272 273 273 272 270 267 266 265 265 265 266 267 268 268 268 267 267 269 267 264 265 266 263 260 256 263 273 278 282 286 289 290 288 288 289 291 292 289 284 281 279 285 295 298 296 296 295 292 290 290 289 289 290 291 292 292 293 293
278 279 279 280 280 279 279 279 278 277 275 274 273 274 274 273 273 272 271 270 270 269 270 271 270 271 273 274 273 272 271 270 270 270 268 266 266 266 265 264 264 265 267 268 268 268 270 268 261 259 263 265 266 265 266 275 283 286 288 288 287 286 285 286 288 289 289 283 278 278 281 287 294 295 294 292 290 287 287 287 287 288 290 291 292 293 292 292
280 281 281 282 282 283 283 284 284 283 281 278 276 276 275 275 275 273 272 271 270 270 270 271 271 271 271 272 272 272 273 270 269 268 266 265 266 266 266 264 266 266 266 268 271 274 274 266 260 262 267 270 273 275 278 283 285 286 287 285 284 284 284 286 288 290 288 280 277 282 285 288 291 292 292 291 287 283 282 286 287 289 291 293 293 293 291 292
279 280 281 282 282 283 285 286 287 287 286 285 282 279 277 277 277 276 275 272 269 269 269 269 271 271 270 272 273 273 274 272 269 265 263 264 265 266 266 265 268 268 267 271 275 275 270 264 264 268 273 276 278 278 279 281 282 283 283 283 282 280 282 286 288 289 287 279 280 286 286 285 288 289 289 288 285 282 284 288 289 290 292 292 293 295 295 294
278 279 281 281 282 282 284 285 286 287 288 289 288 286 283 280 279 279 279 277 272 269 270 269 269 271 271 273 274 274 273 271 268 265 264 265 265 265 267 267 268 269 270 272 272 271 266 264 270 275 278 279 277 276 277 279 280 279 278 277 275 277 283 285 286 288 285 280 283 288 286 285 287 287 286 284 283 285 288 289 289 289 289 290 294 298 298 295
277 278 279 280 280 281 282 284 285 286 287 289 290 289 289 287 285 284 283 283 278 272 271 271 270 271 272 272 273 274 272 270 269 267 265 264 264 264 266 267 269 270 272 270 268 267 265 269 278 281 281 279 276 276 276 278 278 274 273 270 270 276 279 280 286 290 287 284 287 289 286 284 284 284 282 282 284 288 288 287 286 287 288 292 297 298 297 296
275 276 276 277 278 279 281 282 283 284 285 287 288 288 289 289 290 290 288 287 284 278 274 274 273 272 273 273 272 270 269 269 268 267 264 261 262 263 264 266 268 269 270 269 270 269 269 275 281 280 278 277 277 277 275 276 277 276 275 271 273 279 279 279 287 291 288 286 287 289 286 282 281 283 282 283 286 287 286 286 285 286 290 294 298 299 298 294
275 275 275 276 277 278 279 280 281 281 283 284 284 285 287 288 291 292 293 292 289 286 283 280 278 276 275 272 268 267 266 266 265 266 264 260 259 261 263 264 265 268 269 271 273 272 273 277 279 277 276 275 276 276 276 275 278 277 276 276 280 283 283 284 287 289 287 285 287 288 284 282 284 283 284 286 286 285 285 287 287 290 293 294 297 300 297 289
275 276 276 276 276 277 277 277 277 278 280 281 281 283 284 287 290 292 295 295 291 290 291 287 281 278 275 269 266 265 262 264 265 264 262 260 258 258 260 261 262 266 269 271 272 272 274 277 276 274 275 275 272 272 275 276 275 274 276 282 284 284 284 286 287 286 281 282 287 282 265 285 288 281 281 284 284 285 287 287 288 292 294 295 298 298 293 286
276 277 277 277 277 277 277 276 277 277 278 278 279 281 282 286 288 291 299 299 292 293 296 289 278 274 274 272 271 259 253 264 270 265 263 262 260 258 257 259 261 264 266 267 265 267 273 277 276 276 276 273 269 271 279 278 270 272 279 284 284 285 285 287 287 282 278 280 281 262 244 281 284 279 281 284 283 284 285 287 289 291 292 295 298 297 293 287
277 276 277 278 278 278 278 277 277 277 276 276 276 278 279 283 284 289 299 297 287 298 299 286 279 275 271 267 267 258 256 268 272 268 268 263 259 258 258 260 261 263 264 262 261 265 272 274 273 274 271 271 273 279 285 279 270 273 281 282 281 283 282 283 284 279 279 284 279 257 245 268 280 280 283 282 277 278 284 288 289 289 292 295 297 299 293 281
278 277 277 277 277 279 279 278 278 276 275 275 275 276 276 278 280 285 287 263 272 291 284 276 273 269 266 257 255 258 261 267 268 267 265 256 256 260 260 261 260 262 262 260 263 269 274 273 271 267 264 271 278 282 281 275 270 274 278 278 278 279 279 281 280 276 279 280 271 249 237 243 280 284 280 264 264 272 283 291 290 289 294 295 297 300 292 280
276 278 279 277 276 277 275 276 278 277 276 275 275 276 275 277 279 278 263 251 270 283 278 276 273 269 267 259 253 255 258 263 265 264 260 255 259 260 259 259 257 259 262 262 264 271 274 272 269 266 268 274 277 276 274 271 269 272 273 273 274 276 277 276 272 273 280 273 258 255 255 240 270 292 295 252 269 277 285 294 291 289 296 297 297 299 298 293
274 275 278 278 279 276 272 273 275 275 277 276 275 276 275 278 275 256 235 260 274 280 276 276 274 272 271 265 260 257 255 256 257 257 259 259 260 259 258 258 256 257 260 261 265 271 272 268 269 271 274 275 275 273 272 271 270 271 270 269 272 278 279 275 266 259 258 262 259 265 266 241 236 268 342 317 306 298 285 294 289 286 295 298 300 303 303 297
274 274 275 276 279 278 274 274 272 269 272 273 273 273 274 276 259 241 242 261 278 285 275 278 283 284 281 267 257 252 251 252 251 251 256 259 259 260 259 260 260 256 258 263 268 271 269 267 270 273 273 273 272 270 268 269 269 267 263 259 262 281 291 279 244 217 237 251 260 267 257 236 242 256 271 274 280 280 279 288 289 287 286 292 302 305 302 295
275 274 274 273 276 278 280 279 273 270 272 273 274 270 267 259 251 251 250 253 254 253 268 286 293 293 287 271 260 254 252 253 253 250 251 255 256 258 259 259 259 255 258 265 268 268 270 272 269 264 266 269 266 263 263 268 272 267 260 252 241 229 333 270 248 264 261 259 269 265 243 243 258 268 272 274 281 285 284 287 287 285 276 281 297 302 297 295
274 273 272 271 271 273 277 278 277 276 278 281 278 266 248 231 248 257 255 253 256 261 271 279 282 282 279 273 269 264 258 258 259 255 252 253 253 255 256 256 257 257 259 261 262 263 268 272 270 264 265 268 266 264 267 272 274 269 266 258 243 231 216 230 247 253 272 282 283 251 216 250 270 275 282 286 291 289 288 289 281 277 276 272 283 295 296 296
271 270 270 269 267 267 269 273 277 279 281 283 274 252 232 238 251 258 258 259 263 268 273 275 275 275 274 272 269 265 262 260 260 257 254 253 253 256 258 257 257 258 255 252 255 259 256 264 272 273 271 272 271 269 266 261 261 263 259 244 241 246 244 241 248 257 275 310 284 239 231 263 271 277 281 285 288 286 285 286 272 267 276 274 279 292 294 290
269 268 267 266 265 265 265 267 271 273 275 277 261 239 243 255 261 264 264 265 266 268 272 272 272 271 269 268 266 265 264 260 259 257 254 254 255 257 258 258 257 255 253 252 254 256 252 260 270 274 274 275 274 271 262 249 250 255 245 237 251 260 250 239 246 261 267 285 273 261 260 270 278 286 287 287 293 291 285 283 270 268 279 280 286 290 282 275
269 268 266 265 265 265 264 264 267 268 269 267 254 247 258 267 268 267 267 268 269 269 269 269 272 270 265 265 267 268 267 259 256 254 252 253 255 257 257 258 259 257 258 260 259 257 256 261 267 269 272 272 273 274 264 250 244 239 240 253 261 255 240 234 230 260 250 245 269 268 271 278 282 284 283 287 298 297 291 286 280 281 278 271 279 282 264 259
270 270 269 267 267 267 265 263 264 266 265 261 256 257 263 266 267 268 268 266 266 265 261 259 265 266 262 261 263 265 267 262 260 257 255 255 258 263 264 263 262 261 261 261 260 260 259 260 264 266 267 268 270 270 258 248 241 235 243 253 249 236 228 221 207 218 240 232 260 266 272 279 273 270 278 288 294 297 298 296 291 291 284 276 278 269 246 244
268 269 268 268 268 267 266 263 261 262 260 254 253 257 261 264 267 269 269 267 266 264 260 259 261 258 256 258 259 261 265 267 268 264 259 256 259 267 271 270 270 269 264 257 254 256 256 253 257 262 263 263 264 261 253 246 239 234 240 242 241 245 238 220 214 212 226 237 251 261 270 274 270 272 281 286 291 295 295 301 295 290 297 293 281 261 245 240
267 269 268 267 268 267 265 263 258 257 256 255 256 260 263 267 269 270 271 270 268 265 263 265 264 258 257 260 262 265 266 266 267 268 264 260 260 267 271 272 273 271 266 257 252 254 252 247 247 254 256 255 254 256 256 254 247 237 234 234 238 242 238 235 231 223 228 242 249 250 252 264 269 274 278 278 284 288 287 299 293 283 291 291 277 257 244 237
268 268 267 267 268 267 265 262 257 256 257 258 260 263 266 269 271 273 273 272 270 268 267 267 266 263 262 263 265 267 265 261 259 256 253 251 251 257 264 268 272 268 260 253 251 251 247 243 244 247 247 247 251 257 260 261 260 253 245 242 245 244 239 240 240 232 237 241 241 253 253 258 266 271 273 274 278 280 281 288 286 283 286 284 277 265 247 234
266 266 267 269 269 268 266 262 260 259 258 259 261 264 267 270 271 272 273 272 271 270 269 267 266 265 265 267 270 271 269 264 259 253 250 250 250 249 251 253 258 265 266 263 262 256 248 247 249 248 246 248 250 254 257 259 261 256 247 245 248 248 241 237 241 243 245 248 251 257 259 257 264 269 271 273 276 278 280 281 282 285 285 280 276 268 250 235
265 264 267 268 267 267 266 261 258 257 257 260 263 265 266 268 268 269 269 269 269 271 272 271 271 271 272 274 275 276 276 273 270 268 264 262 260 259 258 254 251 255 266 270 270 263 251 248 257 259 258 257 253 251 254 259 260 252 243 241 242 246 247 247 254 258 256 256 255 256 259 257 266 273 276 277 278 279 279 279 281 286 285 279 272 259 243 234
265 264 264 264 264 262 257 254 256 257 260 264 265 264 265 265 266 267 268 269 271 273 274 275 276 276 278 280 280 279 278 274 272 275 274 271 271 271 271 269 263 260 263 263 263 265 262 261 274 282 277 269 261 255 253 255 256 256 254 254 255 258 259 258 258 258 257 254 252 255 258 256 269 284 286 285 286 286 285 283 281 280 279 276 266 249 241 240
265 264 263 261 260 258 255 255 259 261 263 267 267 267 268 268 268 268 270 272 273 275 275 275 276 277 278 279 277 276 276 272 270 273 275 276 280 281 280 279 276 272 272 271 270 271 270 267 266 262 247 251 255 253 257 258 257 255 255 258 262 263 262 258 253 250 249 250 247 245 249 257 268 282 286 288 291 291 292 292 286 279 272 267 259 246 244 249
264 263 263 262 259 258 259 260 261 260 260 262 264 266 267 268 270 272 273 273 273 274 274 272 273 275 275 273 271 270 272 272 269 269 271 275 279 283 283 283 282 280 281 280 275 271 266 263 261 255 248 250 255 259 266 267 261 257 258 262 265 266 264 258 248 242 247 251 246 244 250 256 262 272 280 288 291 291 293 294 291 285 274 267 264 256 253 257
265 263 263 262 258 256 258 262 262 262 262 261 261 263 266 268 270 271 271 271 273 275 275 273 271 270 269 269 269 268 269 271 268 265 267 270 275 280 282 281 280 281 283 281 275 266 258 255 259 259 255 256 259 262 266 263 257 256 259 262 264 264 261 253 245 245 251 250 247 250 253 254 258 266 276 285 289 291 292 292 292 290 284 278 276 270 267 269
266 264 261 256 251 248 250 255 256 257 258 257 257 260 264 267 267 268 270 273 275 276 275 271 270 269 271 272 269 266 266 267 266 266 267 269 271 275 277 278 280 281 280 276 272 266 258 254 257 260 259 259 260 260 261 259 256 255 255 258 262 262 258 251 248 251 251 245 248 256 257 256 259 265 272 280 288 290 291 292 291 287 283 280 279 278 277 278
265 265 262 255 250 250 250 249 246 246 246 246 248 252 255 259 261 261 265 270 272 273 271 270 271 272 275 275 269 264 264 265 266 269 270 269 269 270 271 274 277 278 276 272 271 269 262 256 258 258 258 259 259 259 259 257 256 255 254 256 258 259 257 254 253 256 254 251 253 257 258 258 261 263 268 277 285 286 286 288 285 282 282 281 281 280 280 281
265 263 261 257 254 255 257 254 249 248 247 247 249 251 253 256 260 262 262 264 265 267 268 271 273 270 267 266 262 259 261 263 263 265 265 265 267 269 270 272 274 275 274 270 271 271 263 260 263 261 257 256 257 259 258 256 256 256 256 257 258 258 258 256 255 256 255 255 257 257 256 258 262 265 268 274 280 280 279 282 283 284 283 281 280 280 281 283
268 265 264 262 260 261 261 258 253 250 250 251 252 253 255 257 260 262 262 262 262 263 266 269 272 269 265 264 262 260 261 260 258 258 258 259 261 262 263 266 267 271 272 269 270 269 263 262 263 259 254 252 253 256 255 255 255 253 253 256 258 256 255 255 256 256 255 256 258 257 255 259 267 273 275 277 280 278 277 279 281 281 279 278 281 284 287 291
269 268 267 265 265 266 264 260 255 251 253 257 255 252 251 252 252 255 258 259 258 260 264 266 268 270 271 271 271 271 271 269 266 264 261 260 261 259 259 259 259 262 266 269 270 268 264 262 258 254 254 254 255 257 257 255 252 244 247 256 259 257 257 256 256 257 258 259 257 256 259 267 274 278 276 276 278 276 274 275 276 276 277 279 283 289 294 296
Height
3192 3192 3192 3192 3192 3192 3192 3192 3192 3191 3191 3191 3191 3191 3191 3190 3190 3190 3190 3190 3190 3190 3189 3189 3189 3188 3188 3188 3188 3187 3187 3187 3187 3187 3187 3186 3186 3186 3186 3186 3185 3185 3184 3184 3183 3183 3182 3182 3181 3181 3180 3180 3179 3179 3178 3178 3177 3177 3176 3175 3175 3175 3175 3174 3174 3173 3173 3173 3172 3171 3171 3170 3170 3169 3168 3168 3167 3166 3165 3164 3164 3163 3162 3162 3162 3162 3161 3161
3191 3190 3190 3190 3190 3190 3190 3190 3190 3190 3190 3190 3190 3190 3189 3189 3189 3189 3189 3189 3189 3188 3188 3188 3187 3187 3187 3187 3186 3186 3186 3186 3185 3186 3186 3185 3185 3185 3185 3184 3184 3184 3183 3183 3182 3182 3181 3181 3180 3180 3179 3179 3178 3178 3177 3177 3176 3175 3175 3173 3173 3173 3173 3173 3172 3172 3171 3171 3171 3170 3169 3168 3167 3167 3166 3165 3165 3164 3163 3163 3162 3161 3161 3160 3160 3160 3159 3159
3189 3189 3189 3189 3189 3189 3189 3189 3189 3189 3189 3189 3189 3189 3188 3188 3188 3187 3187 3187 3187 3187 3187 3186 3186 3186 3185 3185 3185 3185 3185 3184 3184 3185 3185 3183 3183 3183 3183 3183 3183 3183 3182 3182 3181 3181 3180 3179 3179 3179 3178 3178 3177 3176 3176 3175 3175 3174 3173 3172 3172 3172 3171 3171 3171 3170 3170 3170 3169 3169 3167 3166 3165 3165 3164 3163 3163 3162 3161 3161 3160 3159 3159 3158 3158 3157 3157 3157
3188 3188 3188 3188 3188 3188 3188 3188 3187 3187 3187 3187 3187 3187 3187 3187 3187 3186 3186 3186 3185 3185 3185 3185 3184 3184 3184 3184 3183 3183 3183 3183 3183 3183 3183 3182 3182 3182 3182 3182 3182 3181 3181 3181 3180 3180 3179 3178 3177 3177 3176 3176 3175 3174 3174 3174 3173 3172 3171 3170 3171 3170 3169 3169 3169 3168 3168 3168 3167 3167 3166 3164 3164 3162 3161 3162 3160 3159 3160 3160 3158 3157 3157 3156 3156 3155 3155 3155
3186 3186 3186 3186 3186 3186 3186 3186 3186 3186 3186 3186 3186 3186 3186 3185 3185 3185 3184 3184 3184 3184 3183 3183 3183 3182 3182 3182 3182 3181 3182 3182 3181 3181 3181 3181 3181 3181 3181 3180 3180 3180 3180 3179 3179 3178 3178 3177 3176 3175 3174 3174 3173 3172 3172 3172 3171 3169 3169 3169 3169 3169 3167 3167 3167 3166 3166 3166 3165 3165 3163 3162 3162 3160 3159 3159 3157 3156 3158 3158 3156 3155 3155 3154 3153 3153 3153 3153
3185 3185 3185 3185 3185 3185 3185 3184 3184 3184 3184 3184 3184 3184 3184 3184 3184 3183 3183 3182 3182 3182 3181 3181 3181 3180 3180 3180 3180 3180 3180 3180 3180 3180 3180 3179 3179 3179 3179 3179 3179 3178 3178 3178 3177 3177 3176 3176 3175 3174 3173 3173 3172 3171 3171 3170 3169 3167 3166 3167 3167 3166 3165 3165 3165 3164 3164 3163 3162 3162 3161 3160 3159 3158 3157 3156 3154 3155 3156 3155 3153 3152 3151 3150 3150 3150 3150 3150
3183 3183 3183 3183 3183 3183 3183 3183 3183 3182 3182 3182 3182 3182 3182 3182 3182 3181 3181 3181 3181 3180 3180 3179 3179 3178 3178 3178 3178 3178 3178 3178 3178 3178 3178 3178 3177 3178 3177 3177 3177 3176 3176 3176 3176 3175 3175 3174 3173 3173 3171 3171 3171 3170 3169 3168 3167 3165 3164 3165 3165 3164 3163 3163 3162 3162 3162 3160 3160 3160 3158 3158 3157 3156 3154 3151 3151 3153 3153 3152 3151 3150 3148 3147 3146 3147 3147 3148
3181 3181 3181 3181 3181 3181 3181 3181 3181 3181 3180 3180 3180 3180 3180 3180 3180 3179 3179 3179 3179 3178 3178 3177 3177 3176 3176 3176 3176 3175 3176 3176 3176 3176 3175 3175 3175 3175 3175 3175 3175 3174 3174 3174 3174 3173 3173 3172 3172 3171 3169 3169 3169 3168 3168 3166 3165 3163 3162 3163 3162 3162 3161 3161 3160 3159 3159 3158 3158 3157 3155 3155 3155 3153 3149 3147 3149 3151 3151 3150 3149 3148 3146 3146 3144 3144 3144 3144
3179 3179 3179 3179 3179 3179 3179 3179 3179 3179 3179 3178 3178 3178 3178 3177 3177 3177 3177 3177 3177 3176 3176 3175 3175 3174 3174 3174 3173 3173 3174 3174 3174 3174 3173 3173 3173 3173 3173 3173 3172 3172 3172 3172 3172 3171 3171 3170 3170 3169 3168 3167 3167 3166 3166 3164 3162 3161 3161 3160 3160 3160 3160 3159 3157 3157 3156 3155 3154 3153 3152 3153 3153 3151 3145 3145 3148 3149 3148 3147 3147 3146 3144 3144 3143 3142 3142 3141
3177 3177 3177 3177 3177 3177 3177 3177 3176 3177 3177 3176 3176 3176 3175 3175 3175 3175 3175 3174 3174 3174 3173 3173 3172 3172 3171 3171 3170 3170 3172 3172 3172 3171 3171 3171 3171 3171 3171 3171 3170 3170 3170 3170 3169 3169 3169 3168 3167 3167 3166 3165 3164 3164 3164 3162 3160 3159 3159 3158 3157 3157 3157 3156 3154 3155 3154 3152 3151 3149 3149 3149 3149 3147 3143 3144 3147 3146 3145 3144 3144 3143 3142 3142 3142 3141 3140 3139
3175 3175 3175 3175 3175 3174 3174 3174 3174 3174 3174 3174 3174 3173 3173 3173 3172 3172 3172 3172 3171 3171 3170 3170 3169 3169 3169 3169 3167 3168 3170 3170 3169 3169 3169 3169 3169 3169 3169 3168 3168 3168 3167 3167 3167 3167 3166 3166 3165 3164 3163 3162 3161 3161 3161 3159 3158 3157 3156 3155 3155 3155 3153 3153 3152 3152 3152 3149 3148 3147 3145 3146 3145 3143 3142 3143 3144 3142 3141 3141 3141 3140 3140 3140 3139 3138 3138 3136
3172 3172 3172 3173 3172 3172 3172 3172 3172 3172 3171 3171 3171 3171 3170 3170 3170 3170 3169 3169 3168 3168 3168 3167 3166 3166 3165 3165 3165 3166 3167 3166 3166 3167 3167 3167 3167 3167 3166 3166 3166 3165 3165 3165 3165 3164 3163 3163 3162 3161 3161 3160 3159 3159 3158 3157 3155 3154 3153 3151 3151 3151 3149 3150 3150 3150 3148 3145 3145 3144 3141 3141 3142 3140 3140 3141 3140 3138 3138 3137 3138 3137 3137 3137 3136 3136 3135 3134
3169 3169 3170 3170 3170 3170 3169 3169 3169 3169 3169 3169 3168 3168 3167 3167 3167 3166 3167 3166 3165 3165 3164 3164 3163 3162 3161 3161 3163 3164 3163 3163 3164 3164 3164 3165 3164 3164 3164 3163 3163 3163 3162 3162 3162 3161 3161 3160 3159 3158 3158 3157 3157 3156 3154 3154 3153 3151 3151 3149 3147 3146 3145 3147 3148 3146 3145 3142 3142 3141 3137 3135 3137 3138 3137 3138 3137 3135 3134 3134 3134 3134 3133 3133 3133 3132 3132 3132
3166 3166 3166 3167 3167 3167 3167 3167 3167 3167 3166 3166 3166 3165 3165 3164 3164 3163 3164 3163 3162 3161 3161 3160 3159 3158 3157 3158 3161 3160 3160 3161 3161 3162 3162 3162 3162 3162 3161 3161 3160 3160 3159 3159 3159 3158 3157 3156 3155 3155 3155 3155 3155 3153 3151 3150 3150 3149 3148 3145 3144 3142 3140 3144 3145 3142 3140 3139 3138 3138 3133 3130 3133 3134 3134 3134 3133 3132 3131 3131 3131 3130 3129 3129 3129 3128 3128 3128
3163 3163 3163 3163 3163 3163 3163 3164 3164 3164 3164 3163 3163 3162 3162 3162 3161 3161 3160 3160 3159 3158 3158 3157 3156 3155 3153 3154 3157 3157 3157 3158 3158 3159 3159 3159 3159 3159 3158 3158 3157 3156 3156 3156 3155 3155 3154 3152 3152 3152 3153 3153 3153 3150 3147 3147 3147 3147 3144 3140 3141 3139 3136 3140 3141 3138 3137 3136 3135 3134 3130 3127 3127 3129 3130 3130 3128 3127 3126 3126 3127 3126 3125 3125 3124 3124 3123 3123
3159 3159 3160 3160 3160 3160 3160 3160 3160 3161 3161 3161 3160 3160 3159 3159 3158 3158 3157 3157 3156 3155 3155 3153 3153 3152 3149 3151 3153 3154 3154 3155 3155 3156 3156 3156 3156 3156 3155 3155 3154 3153 3152 3152 3152 3151 3150 3149 3148 3149 3150 3151 3150 3146 3144 3144 3144 3143 3140 3137 3138 3137 3134 3135 3135 3134 3134 3132 3131 3129 3125 3123 3122 3124 3126 3125 3124 3122 3121 3121 3121 3121 3121 3121 3119 3119 3118 3118
3156 3156 3156 3156 3156 3156 3156 3157 3157 3157 3157 3157 3157 3157 3156 3155 3155 3155 3154 3154 3153 3153 3152 3150 3150 3149 3146 3148 3150 3150 3151 3151 3152 3152 3153 3153 3152 3152 3152 3151 3150 3149 3149 3148 3148 3147 3146 3146 3145 3145 3147 3148 3147 3143 3142 3141 3139 3138 3137 3135 3135 3135 3133 3131 3129 3130 3131 3128 3126 3124 3121 3118 3118 3121 3122 3121 3120 3118 3116 3116 3116 3116 3116 3116 3116 3114 3113 3113
3153 3153 3152 3152 3152 3152 3152 3152 3153 3153 3153 3154 3153 3153 3153 3152 3152 3151 3150 3150 3149 3149 3148 3146 3147 3145 3143 3146 3147 3147 3148 3148 3148 3149 3150 3149 3149 3148 3148 3147 3146 3145 3145 3145 3144 3143 3143 3143 3141 3142 3145 3144 3142 3139 3137 3136 3136 3136 3136 3134 3132 3132 3131 3128 3125 3126 3127 3125 3123 3121 3116 3113 3113 3117 3117 3117 3117 3114 3111 3112 3111 3110 3111 3111 3111 3110 3109 3108
3150 3149 3149 3149 3149 3149 3149 3149 3149 3149 3149 3150 3149 3149 3149 3148 3147 3147 3146 3146 3145 3146 3144 3142 3142 3142 3140 3142 3144 3144 3145 3146 3145 3146 3146 3146 3145 3144 3144 3143 3141 3141 3141 3141 3140 3139 3140 3139 3137 3138 3140 3139 3138 3136 3134 3134 3135 3135 3134 3132 3128 3127 3126 3124 3123 3123 3124 3121 3119 3117 3112 3109 3109 3110 3111 3112 3114 3111 3107 3106 3105 3105 3106 3106 3105 3105 3104 3103
3146 3146 3147 3146 3146 3146 3146 3146 3145 3145 3145 3146 3146 3145 3144 3144 3142 3142 3141 3141 3141 3141 3141 3138 3137 3138 3138 3139 3140 3141 3142 3142 3142 3143 3143 3142 3142 3141 3140 3138 3136 3137 3138 3137 3137 3137 3137 3134 3132 3134 3136 3136 3137 3136 3133 3133 3133 3131 3130 3127 3124 3123 3120 3119 3121 3120 3121 3117 3112 3113 3108 3104 3104 3103 3104 3106 3108 3107 3104 3102 3100 3100 3101 3100 3100 3099 3099 3099
3143 3143 3143 3143 3143 3143 3143 3143 3142 3142 3141 3142 3142 3141 3141 3140 3137 3136 3135 3135 3136 3137 3136 3135 3134 3132 3134 3135 3136 3138 3138 3138 3138 3138 3138 3139 3138 3137 3135 3134 3132 3132 3134 3135 3134 3133 3131 3127 3127 3131 3133 3135 3135 3133 3131 3129 3129 3127 3126 3122 3119 3119 3114 3113 3117 3117 3117 3113 3106 3107 3103 3099 3100 3098 3098 3100 3100 3100 3100 3099 3096 3095 3096 3095 3095 3095 3094 3095
3140 3140 3140 3140 3140 3140 3140 3140 3139 3139 3138 3138 3138 3138 3137 3136 3134 3132 3129 3126 3129 3133 3131 3131 3131 3127 3130 3133 3132 3135 3134 3132 3133 3133 3135 3136 3134 3133 3131 3129 3128 3128 3130 3132 3130 3126 3123 3121 3125 3129 3130 3132 3130 3129 3128 3126 3124 3123 3121 3118 3114 3115 3112 3108 3112 3114 3113 3108 3102 3102 3097 3091 3094 3093 3092 3093 3093 3094 3095 3095 3093 3091 3091 3091 3092 3091 3090 3090
3137 3137 3137 3137 3137 3137 3137 3137 3136 3136 3136 3135 3135 3134 3134 3132 3131 3129 3126 3120 3120 3126 3126 3126 3126 3124 3126 3129 3129 3131 3129 3127 3127 3128 3132 3132 3129 3129 3127 3125 3125 3124 3126 3126 3124 3121 3116 3117 3123 3127 3127 3127 3125 3125 3126 3122 3120 3117 3116 3114 3109 3112 3112 3104 3106 3110 3108 3104 3100 3097 3090 3084 3086 3086 3085 3088 3089 3089 3090 3090 3088 3087 3087 3088 3088 3087 3086 3085
3134 3134 3134 3134 3134 3134 3134 3134 3134 3133 3133 3133 3132 3132 3131 3129 3128 3126 3123 3116 3110 3115 3121 3121 3120 3119 3122 3125 3124 3126 3123 3121 3122 3123 3128 3127 3125 3125 3123 3122 3121 3119 3121 3121 3118 3114 3111 3116 3121 3121 3122 3122 3120 3120 3122 3120 3115 3110 3110 3111 3106 3108 3110 3103 3103 3106 3101 3098 3097 3095 3084 3073 3077 3080 3077 3083 3086 3084 3085 3085 3083 3083 3084 3085 3084 3083 3082 3080
3130 3131 3130 3131 3130 3130 3132 3131 3130 3130 3130 3130 3129 3129 3128 3127 3126 3124 3120 3114 3104 3105 3114 3115 3114 3115 3117 3119 3118 3119 3117 3115 3116 3118 3121 3121 3122 3121 3118 3118 3116 3114 3116 3117 3114 3107 3107 3115 3117 3115 3116 3117 3116 3114 3117 3118 3109 3102 3104 3107 3105 3104 3105 3103 3103 3102 3096 3092 3092 3095 3082 3062 3065 3073 3071 3076 3080 3078 3080 3080 3078 3079 3080 3081 3081 3079 3078 3076
3127 3127 3127 3127 3127 3127 3128 3127 3127 3128 3127 3127 3127 3126 3126 3125 3124 3122 3119 3111 3100 3099 3106 3107 3108 3110 3111 3111 3112 3114 3112 3107 3110 3114 3114 3115 3117 3117 3114 3112 3112 3110 3111 3114 3110 3102 3103 3110 3112 3111 3111 3112 3112 3111 3113 3114 3106 3097 3098 3104 3104 3102 3102 3100 3101 3100 3093 3088 3087 3092 3086 3064 3056 3063 3066 3070 3072 3072 3075 3075 3073 3076 3076 3075 3076 3075 3075 3074
3123 3123 3123 3123 3124 3124 3124 3124 3124 3124 3124 3124 3124 3124 3124 3123 3123 3121 3118 3110 3097 3096 3101 3101 3103 3105 3105 3107 3108 3110 3107 3103 3106 3109 3109 3110 3111 3111 3109 3107 3108 3107 3108 3110 3105 3098 3101 3105 3105 3107 3108 3107 3108 3107 3107 3110 3105 3095 3095 3100 3100 3100 3099 3097 3098 3096 3091 3087 3084 3085 3089 3075 3050 3047 3058 3062 3064 3066 3068 3070 3070 3071 3072 3071 3072 3071 3071 3070
3119 3119 3119 3120 3121 3120 3120 3121 3120 3121 3121 3120 3121 3122 3121 3121 3121 3119 3120 3113 3097 3093 3098 3099 3100 3101 3102 3105 3105 3106 3104 3101 3103 3105 3106 3107 3106 3106 3105 3103 3104 3104 3105 3105 3098 3095 3100 3101 3100 3102 3103 3103 3103 3103 3103 3105 3103 3095 3095 3097 3096 3097 3096 3095 3094 3092 3090 3086 3079 3077 3088 3083 3047 3034 3050 3054 3054 3060 3061 3065 3067 3066 3068 3068 3068 3067 3066 3066
3115 3115 3115 3116 3117 3118 3117 3117 3117 3117 3117 3117 3118 3118 3118 3119 3118 3118 3120 3111 3095 3092 3096 3096 3097 3099 3100 3102 3102 3102 3102 3101 3101 3101 3103 3104 3102 3102 3100 3099 3102 3100 3100 3100 3093 3093 3098 3096 3096 3097 3098 3097 3098 3099 3100 3101 3099 3096 3096 3094 3093 3094 3092 3094 3091 3089 3091 3082 3073 3073 3083 3084 3048 3024 3041 3048 3047 3054 3055 3059 3062 3062 3065 3065 3064 3064 3062 3062
3112 3111 3112 3111 3113 3114 3114 3114 3115 3114 3113 3114 3115 3115 3116 3116 3115 3117 3115 3102 3092 3093 3093 3092 3095 3096 3097 3098 3099 3099 3099 3099 3099 3099 3100 3100 3099 3099 3096 3096 3099 3097 3097 3095 3090 3091 3094 3092 3090 3091 3092 3092 3094 3096 3095 3096 3096 3095 3095 3091 3092 3091 3089 3092 3087 3088 3090 3074 3066 3070 3075 3081 3054 3022 3032 3042 3041 3047 3050 3054 3057 3058 3061 3061 3061 3061 3060 3059
3108 3108 3108 3107 3109 3110 3109 3111 3113 3111 3111 3111 3111 3112 3112 3112 3114 3113 3102 3091 3091 3092 3090 3090 3092 3093 3094 3095 3095 3095 3096 3095 3096 3096 3097 3097 3096 3094 3092 3093 3094 3094 3094 3091 3088 3089 3089 3086 3085 3086 3087 3089 3090 3091 3090 3092 3093 3092 3092 3090 3091 3089 3086 3087 3084 3087 3086 3067 3061 3066 3068 3072 3051 3024 3030 3038 3038 3044 3045 3049 3052 3053 3055 3056 3058 3057 3056 3056
3104 3104 3103 3103 3104 3104 3104 3107 3108 3108 3108 3107 3108 3109 3109 3111 3108 3098 3089 3090 3093 3089 3087 3090 3090 3090 3092 3091 3091 3092 3092 3091 3092 3094 3094 3093 3091 3089 3089 3089 3090 3091 3089 3087 3087 3086 3082 3080 3081 3082 3083 3085 3086 3086 3085 3086 3088 3088 3088 3089 3091 3090 3087 3086 3083 3082 3076 3062 3059 3064 3066 3059 3035 3022 3034 3037 3038 3042 3043 3045 3047 3048 3050 3050 3053 3053 3051 3051
3100 3100 3100 3099 3100 3099 3100 3101 3102 3103 3103 3103 3105 3105 3106 3108 3095 3082 3083 3091 3091 3086 3086 3088 3088 3089 3090 3088 3088 3089 3089 3088 3089 3090 3090 3089 3086 3084 3085 3085 3086 3088 3085 3085 3084 3081 3077 3075 3076 3077 3077 3079 3079 3080 3080 3080 3082 3082 3081 3085 3088 3088 3088 3086 3081 3076 3067 3059 3059 3063 3064 3048 3024 3023 3033 3033 3036 3039 3039 3041 3042 3043 3046 3046 3048 3049 3047 3047
3096 3096 3095 3095 3095 3095 3096 3096 3096 3098 3099 3099 3100 3100 3102 3098 3083 3076 3082 3086 3085 3085 3086 3086 3085 3086 3085 3084 3085 3086 3086 3085 3085 3087 3086 3084 3081 3079 3080 3080 3082 3083 3083 3083 3081 3078 3076 3069 3066 3070 3073 3073 3072 3074 3076 3076 3076 3074 3074 3079 3079 3078 3081 3080 3075 3068 3062 3058 3057 3059 3056 3037 3022 3025 3028 3028 3033 3034 3035 3037 3037 3038 3041 3042 3043 3044 3044 3043
3091 3091 3091 3090 3090 3092 3093 3092 3092 3094 3094 3094 3093 3092 3092 3085 3076 3076 3080 3081 3083 3083 3084 3084 3083 3082 3079 3079 3079 3080 3082 3081 3081 3083 3081 3078 3077 3075 3075 3075 3078 3080 3080 3079 3076 3075 3074 3065 3061 3065 3067 3067 3068 3070 3073 3072 3070 3068 3069 3072 3069 3069 3073 3071 3067 3062 3061 3060 3053 3049 3042 3029 3023 3024 3025 3027 3028 3029 3032 3032 3034 3035 3036 3038 3039 3038 3039 3038
3085 3086 3086 3084 3085 3088 3090 3089 3089 3090 3090 3090 3087 3083 3080 3075 3073 3075 3076 3078 3080 3081 3081 3081 3080 3077 3074 3073 3074 3075 3078 3077 3077 3077 3074 3073 3072 3070 3070 3070 3073 3075 3074 3074 3071 3070 3068 3062 3061 3061 3060 3062 3064 3064 3067 3067 3065 3063 3063 3062 3062 3065 3066 3064 3063 3060 3062 3059 3047 3038 3032 3026 3025 3020 3019 3024 3024 3026 3029 3028 3030 3032 3032 3034 3033 3033 3034 3033
3078 3079 3079 3078 3080 3083 3085 3085 3085 3085 3085 3084 3080 3075 3071 3068 3069 3072 3074 3076 3076 3077 3079 3077 3075 3074 3071 3070 3070 3071 3073 3073 3072 3071 3069 3069 3066 3065 3065 3066 3068 3069 3069 3069 3066 3065 3064 3058 3058 3058 3056 3057 3059 3060 3062 3061 3059 3058 3058 3058 3059 3062 3060 3060 3061 3058 3059 3054 3041 3032 3027 3025 3027 3019 3014 3020 3022 3023 3026 3025 3027 3028 3027 3028 3028 3029 3030 3029
3072 3072 3071 3072 3074 3076 3079 3080 3080 3080 3079 3076 3071 3068 3066 3064 3064 3067 3071 3073 3073 3074 3075 3073 3071 3070 3069 3068 3067 3068 3069 3068 3068 3067 3066 3065 3062 3060 3062 3062 3062 3062 3065 3065 3060 3060 3061 3054 3052 3055 3052 3051 3054 3055 3054 3052 3053 3053 3054 3056 3056 3055 3053 3054 3055 3053 3052 3048 3036 3030 3025 3021 3021 3016 3012 3017 3019 3019 3021 3022 3023 3023 3024 3025 3025 3026 3026 3026
3066 3066 3064 3065 3068 3070 3072 3074 3074 3074 3072 3068 3064 3061 3060 3060 3061 3063 3066 3068 3070 3070 3068 3067 3067 3066 3065 3065 3063 3064 3065 3064 3064 3064 3063 3062 3059 3057 3058 3059 3058 3057 3059 3060 3055 3054 3055 3049 3046 3048 3048 3046 3048 3047 3044 3044 3049 3050 3050 3051 3050 3048 3047 3046 3045 3044 3042 3039 3031 3029 3026 3016 3011 3012 3014 3015 3016 3017 3017 3019 3020 3021 3022 3023 3023 3023 3023 3024
3061 3059 3057 3058 3061 3063 3066 3067 3067 3067 3063 3059 3058 3056 3056 3056 3058 3060 3061 3062 3064 3064 3062 3062 3063 3061 3060 3060 3060 3060 3060 3059 3060 3061 3060 3058 3056 3055 3056 3055 3055 3054 3053 3053 3051 3049 3048 3043 3040 3041 3042 3041 3039 3037 3036 3039 3042 3044 3044 3045 3043 3042 3042 3040 3038 3036 3034 3031 3028 3027 3022 3012 3007 3010 3013 3012 3012 3014 3014 3015 3017 3017 3018 3020 3020 3021 3020 3021
3055 3053 3051 3053 3054 3056 3059 3059 3058 3058 3055 3052 3052 3052 3052 3054 3054 3056 3058 3058 3057 3057 3057 3057 3057 3056 3055 3055 3056 3056 3056 3054 3055 3055 3054 3053 3053 3053 3053 3053 3053 3052 3051 3049 3048 3046 3044 3039 3036 3036 3035 3033 3032 3033 3035 3036 3037 3037 3037 3037 3037 3037 3037 3037 3033 3030 3029 3025 3023 3023 3016 3011 3009 3007 3008 3009 3009 3010 3011 3011 3012 3013 3014 3015 3015 3016 3016 3016
3048 3046 3045 3049 3049 3050 3052 3051 3050 3051 3047 3046 3047 3048 3049 3050 3050 3052 3053 3053 3052 3051 3052 3051 3051 3052 3051 3051 3051 3052 3051 3048 3048 3049 3046 3046 3048 3048 3049 3050 3050 3050 3049 3046 3045 3044 3042 3038 3035 3032 3031 3030 3031 3033 3033 3032 3032 3032 3031 3032 3033 3032 3032 3031 3025 3025 3026 3020 3020 3020 3011 3009 3009 3003 3002 3005 3004 3004 3006 3005 3006 3007 3008 3009 3009 3010 3010 3009
3041 3041 3042 3043 3044 3046 3046 3043 3043 3043 3040 3041 3043 3044 3045 3045 3045 3047 3048 3048 3047 3046 3046 3046 3047 3047 3047 3047 3047 3047 3047 3043 3039 3040 3040 3039 3041 3042 3044 3045 3045 3045 3045 3044 3042 3041 3039 3036 3033 3030 3028 3028 3029 3030 3029 3028 3028 3027 3026 3027 3028 3027 3028 3026 3022 3023 3022 3016 3018 3016 3005 3005 3007 3000 2998 3000 2998 2999 2999 2999 3000 3000 3002 3004 3004 3004 3004 3002
3035 3036 3037 3037 3038 3040 3039 3036 3036 3035 3035 3037 3038 3038 3040 3039 3039 3041 3042 3042 3042 3041 3041 3041 3042 3042 3042 3043 3042 3042 3043 3038 3032 3032 3034 3033 3034 3038 3040 3041 3041 3041 3040 3039 3038 3038 3036 3034 3032 3030 3028 3026 3026 3026 3025 3024 3023 3020 3020 3022 3023 3023 3024 3023 3021 3021 3016 3012 3015 3009 2999 3001 3003 2998 2996 2996 2993 2992 2992 2992 2994 2994 2995 2998 2999 2998 2997 2995
3030 3030 3031 3032 3032 3032 3030 3030 3032 3031 3030 3032 3031 3031 3034 3032 3032 3035 3036 3036 3037 3036 3034 3034 3036 3036 3036 3037 3035 3033 3034 3033 3028 3026 3027 3026 3026 3030 3034 3035 3036 3035 3035 3034 3034 3033 3031 3029 3029 3029 3026 3023 3021 3019 3018 3018 3017 3016 3016 3017 3017 3018 3018 3016 3016 3014 3008 3005 3006 3000 2993 2992 2994 2993 2992 2989 2987 2986 2984 2985 2986 2987 2990 2992 2993 2992 2990 2988
3025 3024 3026 3027 3026 3025 3023 3025 3027 3025 3026 3027 3024 3025 3027 3025 3025 3030 3030 3029 3030 3030 3029 3028 3030 3031 3030 3029 3027 3025 3025 3026 3024 3020 3019 3019 3019 3021 3024 3026 3027 3027 3027 3028 3027 3026 3020 3017 3019 3018 3014 3014 3012 3010 3012 3013 3010 3009 3009 3009 3009 3009 3010 3009 3007 3003 2999 2997 2994 2990 2988 2984 2984 2988 2986 2981 2981 2980 2978 2977 2977 2979 2983 2984 2984 2984 2982 2981
3019 3019 3021 3022 3021 3020 3018 3019 3020 3018 3020 3022 3019 3018 3020 3019 3020 3023 3022 3021 3023 3025 3024 3022 3024 3024 3022 3022 3020 3018 3018 3020 3018 3015 3013 3012 3013 3014 3016 3017 3017 3017 3020 3019 3017 3017 3010 3004 3006 3005 3000 3002 3002 3001 3005 3005 3001 3000 3000 2999 2999 2999 3000 3000 2995 2991 2993 2991 2981 2979 2983 2977 2976 2983 2980 2975 2975 2972 2970 2971 2972 2973 2974 2974 2973 2973 2973 2971
3013 3013 3016 3017 3015 3015 3015 3014 3015 3014 3015 3017 3014 3013 3015 3015 3015 3015 3016 3016 3017 3019 3018 3014 3015 3016 3015 3016 3015 3012 3013 3013 3010 3009 3008 3006 3007 3008 3007 3008 3008 3009 3012 3010 3007 3008 3001 2994 2997 2997 2990 2991 2993 2992 2995 2995 2991 2991 2991 2990 2990 2990 2990 2989 2984 2982 2986 2980 2969 2972 2976 2971 2970 2975 2974 2970 2968 2964 2964 2966 2967 2967 2966 2965 2964 2963 2961 2960
3007 3007 3010 3010 3008 3009 3010 3010 3010 3010 3010 3011 3009 3009 3010 3010 3010 3011 3012 3012 3011 3012 3012 3007 3007 3010 3009 3010 3009 3006 3007 3006 3002 3003 3003 3001 3001 3001 2999 2998 3000 3002 3004 3001 2999 3001 2994 2986 2990 2990 2982 2982 2985 2984 2985 2986 2983 2982 2983 2983 2982 2981 2981 2979 2976 2976 2977 2969 2965 2969 2968 2963 2965 2968 2965 2963 2961 2959 2960 2960 2959 2958 2958 2957 2956 2954 2953 2953
3002 3001 3003 3003 3002 3003 3005 3004 3005 3004 3004 3006 3004 3003 3005 3005 3005 3007 3009 3009 3007 3007 3008 3004 3003 3004 3003 3003 3002 2999 2999 3000 2996 2996 2998 2995 2995 2997 2994 2993 2994 2996 2997 2994 2992 2993 2988 2980 2983 2984 2976 2972 2976 2977 2977 2977 2975 2973 2973 2974 2976 2975 2973 2971 2969 2969 2967 2961 2960 2962 2958 2954 2959 2960 2957 2956 2956 2955 2955 2953 2951 2951 2950 2949 2947 2946 2947 2948
2996 2995 2997 2997 2995 2998 2999 2998 2999 2998 2997 2999 2998 2998 3001 3001 3001 3002 3001 3002 3003 3002 3003 3001 2997 2997 2997 2996 2995 2993 2993 2993 2990 2990 2991 2990 2989 2990 2989 2988 2990 2990 2989 2988 2986 2985 2982 2976 2978 2980 2969 2963 2970 2971 2967 2970 2968 2964 2965 2968 2969 2966 2960 2958 2959 2958 2957 2953 2952 2953 2950 2945 2949 2953 2951 2951 2951 2950 2948 2947 2946 2945 2943 2941 2940 2941 2942 2943
2990 2989 2991 2991 2989 2992 2993 2991 2992 2992 2990 2992 2993 2993 2994 2995 2995 2996 2994 2994 2997 2997 2997 2995 2992 2991 2991 2990 2989 2987 2986 2985 2984 2983 2984 2984 2983 2984 2983 2983 2985 2985 2983 2983 2981 2979 2976 2972 2972 2974 2963 2956 2963 2963 2960 2963 2958 2950 2954 2960 2956 2952 2950 2949 2949 2948 2949 2948 2943 2940 2937 2936 2941 2945 2944 2943 2944 2942 2941 2941 2940 2938 2937 2936 2936 2936 2937 2937